project_name,platform_name,Date_(yyyymmdd),Time_(hh24miss),beacon_ID,latitude_DD,longitude_DD,altitude_m,altitude_result_value_type,speed_m_s,speed_result_value_type,direction_degrees,direction_result_value_type,fix,sat
BaySys,Amundsen,2008-02-28,22:12:06,300034012814310,71.0110,-123.4219,31.6493,Actual,,Calculated,93.9500,Calculated,1,7
BaySys,Amundsen,2008-02-29,00:11:24,300034012814310,71.0105,-123.4161,60.0149,Actual,,Calculated,89.4200,Calculated,1,6
BaySys,Amundsen,2008-02-29,02:11:21,300034012814310,71.0075,-123.3991,17.3830,Actual,,Calculated,88.0900,Calculated,1,8
BaySys,Amundsen,2008-02-29,04:11:59,300034012814310,70.9992,-123.3759,14.8074,Actual,,Calculated,274.7900,Calculated,1,8
BaySys,Amundsen,2008-02-29,06:11:33,300034012814310,70.9875,-123.3510,42.2956,Actual,,Calculated,153.4200,Calculated,1,6
BaySys,Amundsen,2008-02-29,08:12:28,300034012814310,70.9736,-123.3177,151.0906,Actual,,Calculated,142.5400,Calculated,1,10
BaySys,Amundsen,2008-02-29,12:12:30,300034012814310,70.9553,-123.2644,27.9080,Actual,,Calculated,198.7900,Calculated,1,8
BaySys,Amundsen,2008-02-29,14:12:27,300034012814310,70.9466,-123.2327,-8.2555,Actual,,Calculated,151.3400,Calculated,1,8
BaySys,Amundsen,2008-02-29,16:12:33,300034012814310,70.9395,-123.2024,19.8790,Actual,,Calculated,156.3000,Calculated,1,9
BaySys,Amundsen,2008-02-29,18:12:55,300034012814310,70.9344,-123.1763,-8.8244,Actual,,Calculated,85.3800,Calculated,1,9
BaySys,Amundsen,2008-02-29,20:13:29,300034012814310,70.9316,-123.1554,-10.6031,Actual,,Calculated,233.9200,Calculated,1,9
BaySys,Amundsen,2008-02-29,22:13:05,300034012814310,70.9298,-123.1398,1.3376,Actual,,Calculated,140.9000,Calculated,1,7
BaySys,Amundsen,2008-03-01,00:13:18,300034012814310,70.9288,-123.1317,-4.6343,Actual,,Calculated,93.3900,Calculated,1,11
BaySys,Amundsen,2008-03-01,04:13:05,300034012814310,70.9309,-123.1334,33.7763,Actual,,Calculated,246.2000,Calculated,1,9
BaySys,Amundsen,2008-03-01,06:13:35,300034012814310,70.9319,-123.1382,1.6244,Actual,,Calculated,123.3100,Calculated,1,11
BaySys,Amundsen,2008-03-01,08:13:24,300034012814310,70.9323,-123.1466,-1.2761,Actual,,Calculated,48.6400,Calculated,1,8
BaySys,Amundsen,2008-03-01,10:13:23,300034012814310,70.9324,-123.1509,-4.6019,Actual,,Calculated,50.2800,Calculated,1,7
BaySys,Amundsen,2008-03-01,12:13:28,300034012814310,70.9317,-123.1492,-18.8451,Actual,,Calculated,234.5100,Calculated,1,8
BaySys,Amundsen,2008-03-01,14:13:53,300034012814310,70.9292,-123.1422,-6.9818,Actual,,Calculated,4.8400,Calculated,1,11
BaySys,Amundsen,2008-03-01,16:23:10,300034012814310,70.9251,-123.1355,-1.4239,Actual,,Calculated,104.0800,Calculated,1,9
BaySys,Amundsen,2008-03-01,18:23:14,300034012814310,70.9215,-123.1266,3.7806,Actual,,Calculated,30.8700,Calculated,1,8
BaySys,Amundsen,2008-03-01,20:23:35,300034012814310,70.9195,-123.1134,-3.5135,Actual,,Calculated,234.9400,Calculated,1,9
BaySys,Amundsen,2008-03-01,22:23:36,300034012814310,70.9190,-123.0980,-3.0393,Actual,,Calculated,73.2600,Calculated,1,8
BaySys,Amundsen,2008-03-02,00:23:18,300034012814310,70.9195,-123.0759,-2.9855,Actual,,Calculated,61.9000,Calculated,1,9
BaySys,Amundsen,2008-03-02,02:25:07,300034012814310,70.9211,-123.0454,-4.0533,Actual,,Calculated,73.7800,Calculated,1,6
BaySys,Amundsen,2008-03-02,04:32:23,300034012814310,70.9210,-123.0002,12.8896,Actual,,Calculated,100.7200,Calculated,1,9
BaySys,Amundsen,2008-03-02,06:41:13,300034012814310,70.9208,-122.9496,6.7551,Actual,,Calculated,98.5200,Calculated,1,8
BaySys,Amundsen,2008-03-02,10:42:48,300034012814310,70.9267,-122.8506,-8.9703,Actual,,Calculated,87.1700,Calculated,1,11
BaySys,Amundsen,2008-03-02,12:42:57,300034012814310,70.9319,-122.7997,32.0139,Actual,,Calculated,63.0500,Calculated,1,10
BaySys,Amundsen,2008-03-02,14:42:58,300034012814310,70.9380,-122.7470,-5.5662,Actual,,Calculated,73.3100,Calculated,1,11
BaySys,Amundsen,2008-03-02,16:43:00,300034012814310,70.9442,-122.6941,-3.7347,Actual,,Calculated,55.5600,Calculated,1,12
BaySys,Amundsen,2008-03-02,18:42:59,300034012814310,70.9502,-122.6433,3.6036,Actual,,Calculated,82.8700,Calculated,1,11
BaySys,Amundsen,2008-03-02,20:43:29,300034012814310,70.9562,-122.5924,-5.9057,Actual,,Calculated,63.7700,Calculated,1,11
BaySys,Amundsen,2008-03-02,22:43:20,300034012814310,70.9614,-122.5477,1.7984,Actual,,Calculated,183.6900,Calculated,1,9
BaySys,Amundsen,2008-03-03,00:43:03,300034012814310,70.9658,-122.5081,-10.5536,Actual,,Calculated,96.1100,Calculated,1,7
BaySys,Amundsen,2008-03-03,02:43:35,300034012814310,70.9690,-122.4714,-12.0870,Actual,,Calculated,173.0000,Calculated,1,11
BaySys,Amundsen,2008-03-03,04:43:14,300034012814310,70.9716,-122.4494,2.0905,Actual,,Calculated,110.1000,Calculated,1,10
BaySys,Amundsen,2008-03-03,06:43:35,300034012814310,70.9722,-122.4407,2.5843,Actual,,Calculated,241.7000,Calculated,1,11
BaySys,Amundsen,2008-03-03,08:43:30,300034012814310,70.9722,-122.4377,-6.4129,Actual,,Calculated,66.1000,Calculated,1,8
BaySys,Amundsen,2008-03-03,10:43:34,300034012814310,70.9722,-122.4377,-10.0781,Actual,,Calculated,248.6600,Calculated,1,11
BaySys,Amundsen,2008-03-03,12:43:21,300034012814310,70.9722,-122.4378,-5.5559,Actual,,Calculated,209.6500,Calculated,1,9
BaySys,Amundsen,2008-03-03,14:44:05,300034012814310,70.9722,-122.4379,-9.6362,Actual,,Calculated,117.9000,Calculated,1,10
BaySys,Amundsen,2008-03-03,16:43:44,300034012814310,70.9724,-122.4379,1.7928,Actual,,Calculated,174.4300,Calculated,1,11
BaySys,Amundsen,2008-03-03,18:43:27,300034012814310,70.9720,-122.4378,-32.0286,Actual,,Calculated,348.8100,Calculated,1,9
BaySys,Amundsen,2008-03-03,20:43:59,300034012814310,70.9720,-122.4387,-11.9734,Actual,,Calculated,141.2000,Calculated,1,10
BaySys,Amundsen,2008-03-03,22:43:32,300034012814310,70.9718,-122.4417,-6.4000,Actual,,Calculated,265.4600,Calculated,1,9
BaySys,Amundsen,2008-03-04,00:44:05,300034012814310,70.9702,-122.4538,-11.5908,Actual,,Calculated,116.9000,Calculated,1,10
BaySys,Amundsen,2008-03-04,02:44:01,300034012814310,70.9682,-122.4745,28.8475,Actual,,Calculated,206.2200,Calculated,1,9
BaySys,Amundsen,2008-03-04,04:43:38,300034012814310,70.9653,-122.5007,16.9836,Actual,,Calculated,254.5800,Calculated,1,11
BaySys,Amundsen,2008-03-04,06:44:05,300034012814310,70.9620,-122.5268,5.5583,Actual,,Calculated,221.2800,Calculated,1,9
BaySys,Amundsen,2008-03-04,08:43:44,300034012814310,70.9602,-122.5515,21.1707,Actual,,Calculated,240.9600,Calculated,1,10
BaySys,Amundsen,2008-03-04,10:43:53,300034012814310,70.9593,-122.5733,-5.2044,Actual,,Calculated,344.9100,Calculated,1,7
BaySys,Amundsen,2008-03-04,12:43:46,300034012814310,70.9584,-122.5951,-4.6338,Actual,,Calculated,253.7900,Calculated,1,8
BaySys,Amundsen,2008-03-04,14:43:49,300034012814310,70.9583,-122.6187,9.3965,Actual,,Calculated,269.2000,Calculated,1,10
BaySys,Amundsen,2008-03-04,16:43:49,300034012814310,70.9587,-122.6412,-1.9034,Actual,,Calculated,280.5200,Calculated,1,9
BaySys,Amundsen,2008-03-04,18:44:30,300034012814310,70.9595,-122.6614,-6.9379,Actual,,Calculated,234.8700,Calculated,1,11
BaySys,Amundsen,2008-03-04,20:44:50,300034012814310,70.9597,-122.6715,-2.1734,Actual,,Calculated,38.9700,Calculated,1,12
BaySys,Amundsen,2008-03-04,22:44:42,300034012814310,70.9613,-122.6807,-4.8152,Actual,,Calculated,323.3200,Calculated,1,8
BaySys,Amundsen,2008-03-05,00:45:23,300034012814310,70.9635,-122.6851,-14.6106,Actual,,Calculated,13.2100,Calculated,1,12
BaySys,Amundsen,2008-03-05,02:45:29,300034012814310,70.9682,-122.6999,18.6575,Actual,,Calculated,296.1300,Calculated,1,9
BaySys,Amundsen,2008-03-05,04:45:06,300034012814310,70.9736,-122.7206,-1.1363,Actual,,Calculated,327.8800,Calculated,1,9
BaySys,Amundsen,2008-03-05,06:44:51,300034012814310,70.9792,-122.7431,-9.4290,Actual,,Calculated,335.1800,Calculated,1,9
BaySys,Amundsen,2008-03-05,08:45:05,300034012814310,70.9839,-122.7565,-3.3063,Actual,,Calculated,337.8300,Calculated,1,5
BaySys,Amundsen,2008-03-05,10:44:57,300034012814310,70.9864,-122.7653,-7.3504,Actual,,Calculated,216.1300,Calculated,1,7
BaySys,Amundsen,2008-03-05,12:44:51,300034012814310,70.9882,-122.7801,0.0811,Actual,,Calculated,307.7100,Calculated,1,10
BaySys,Amundsen,2008-03-05,14:47:18,300034012814310,70.9972,-122.8074,4.7817,Actual,,Calculated,295.3400,Calculated,1,8
BaySys,Amundsen,2008-03-05,16:47:14,300034012814310,71.0027,-122.8340,-10.5652,Actual,,Calculated,329.2400,Calculated,1,9
BaySys,Amundsen,2008-03-05,18:47:53,300034012814310,71.0070,-122.8429,-12.5611,Actual,,Calculated,65.4300,Calculated,1,12
BaySys,Amundsen,2008-03-05,20:47:36,300034012814310,71.0071,-122.8420,-1.1618,Actual,,Calculated,298.2000,Calculated,1,7
BaySys,Amundsen,2008-03-05,22:47:23,300034012814310,71.0077,-122.8392,-3.4018,Actual,,Calculated,40.4100,Calculated,1,10
BaySys,Amundsen,2008-03-06,00:47:59,300034012814310,71.0080,-122.8378,-12.0779,Actual,,Calculated,310.9600,Calculated,1,12
BaySys,Amundsen,2008-03-06,02:47:26,300034012814310,71.0081,-122.8379,12.4440,Actual,,Calculated,261.9100,Calculated,1,10
BaySys,Amundsen,2008-03-06,04:47:26,300034012814310,71.0080,-122.8385,-1.3514,Actual,,Calculated,126.3100,Calculated,1,11
BaySys,Amundsen,2008-03-06,06:48:05,300034012814310,71.0080,-122.8385,-0.9485,Actual,,Calculated,160.4300,Calculated,1,10
BaySys,Amundsen,2008-03-06,08:47:49,300034012814310,71.0080,-122.8386,-5.9834,Actual,,Calculated,51.3500,Calculated,1,8
BaySys,Amundsen,2008-03-06,10:47:33,300034012814310,71.0080,-122.8385,-22.3552,Actual,,Calculated,69.4000,Calculated,1,7
BaySys,Amundsen,2008-03-06,12:47:39,300034012814310,71.0069,-122.8505,-1.6705,Actual,,Calculated,258.7300,Calculated,1,11
BaySys,Amundsen,2008-03-06,14:48:05,300034012814310,71.0056,-122.8810,-6.4255,Actual,,Calculated,339.9800,Calculated,1,10
BaySys,Amundsen,2008-03-06,16:47:41,300034012814310,71.0088,-122.9022,-14.4247,Actual,,Calculated,326.9300,Calculated,1,9
BaySys,Amundsen,2008-03-06,18:47:55,300034012814310,71.0099,-122.9084,6.2867,Actual,,Calculated,28.9000,Calculated,1,9
BaySys,Amundsen,2008-03-06,20:48:23,300034012814310,71.0098,-122.9091,-10.9067,Actual,,Calculated,244.5200,Calculated,1,10
BaySys,Amundsen,2008-03-06,22:47:51,300034012814310,71.0085,-122.9139,-11.0613,Actual,,Calculated,238.6500,Calculated,1,8
BaySys,Amundsen,2008-03-07,00:48:23,300034012814310,71.0069,-122.9125,-13.7098,Actual,,Calculated,216.1700,Calculated,1,12
BaySys,Amundsen,2008-03-07,02:48:13,300034012814310,71.0030,-122.9037,15.2017,Actual,,Calculated,205.2600,Calculated,1,6
BaySys,Amundsen,2008-03-07,04:47:56,300034012814310,70.9930,-122.8870,16.6915,Actual,,Calculated,144.3000,Calculated,1,10
BaySys,Amundsen,2008-03-07,06:47:58,300034012814310,70.9807,-122.8868,20.9729,Actual,,Calculated,181.6900,Calculated,1,10
BaySys,Amundsen,2008-03-07,08:48:35,300034012814310,70.9678,-122.8775,-1.9410,Actual,,Calculated,209.7400,Calculated,1,9
BaySys,Amundsen,2008-03-07,10:48:35,300034012814310,70.9557,-122.8612,-17.5078,Actual,,Calculated,316.2500,Calculated,1,9
BaySys,Amundsen,2008-03-07,12:48:35,300034012814310,70.9484,-122.8500,51.9773,Actual,,Calculated,140.3300,Calculated,1,11
BaySys,Amundsen,2008-03-07,14:48:30,300034012814310,70.9459,-122.8381,11.4213,Actual,,Calculated,117.0800,Calculated,1,10
BaySys,Amundsen,2008-03-07,16:48:06,300034012814310,70.9445,-122.8257,-7.2895,Actual,,Calculated,62.5800,Calculated,1,8
BaySys,Amundsen,2008-03-07,18:48:07,300034012814310,70.9426,-122.8087,-2.8699,Actual,,Calculated,131.4700,Calculated,1,11
BaySys,Amundsen,2008-03-07,20:48:35,300034012814310,70.9380,-122.7914,-9.7764,Actual,,Calculated,187.0300,Calculated,1,8
BaySys,Amundsen,2008-03-07,22:48:43,300034012814310,70.9335,-122.7815,-1.6716,Actual,,Calculated,152.0700,Calculated,1,10
BaySys,Amundsen,2008-03-08,00:48:19,300034012814310,70.9332,-122.7824,-11.0270,Actual,,Calculated,197.8900,Calculated,1,12
BaySys,Amundsen,2008-03-08,02:48:59,300034012814310,70.9347,-122.7902,-14.1918,Actual,,Calculated,291.8700,Calculated,1,12
BaySys,Amundsen,2008-03-08,04:48:53,300034012814310,70.9378,-122.8074,3.0691,Actual,,Calculated,294.9800,Calculated,1,10
BaySys,Amundsen,2008-03-08,06:48:28,300034012814310,70.9404,-122.8348,9.7563,Actual,,Calculated,261.3400,Calculated,1,11
BaySys,Amundsen,2008-03-08,08:48:25,300034012814310,70.9402,-122.8701,-2.2807,Actual,,Calculated,267.0100,Calculated,1,8
BaySys,Amundsen,2008-03-08,10:49:05,300034012814310,70.9375,-122.9132,-8.9370,Actual,,Calculated,239.2000,Calculated,1,9
BaySys,Amundsen,2008-03-08,12:48:48,300034012814310,70.9349,-122.9659,-5.9965,Actual,,Calculated,280.5400,Calculated,1,6
BaySys,Amundsen,2008-03-08,14:48:31,300034012814310,70.9340,-123.0226,2.3059,Actual,,Calculated,271.9100,Calculated,1,9
BaySys,Amundsen,2008-03-08,16:49:05,300034012814310,70.9343,-123.0773,-5.3262,Actual,,Calculated,140.9100,Calculated,1,9
BaySys,Amundsen,2008-03-08,18:49:05,300034012814310,70.9354,-123.1301,72.4110,Actual,,Calculated,200.0300,Calculated,1,13
BaySys,Amundsen,2008-03-08,20:49:05,300034012814310,70.9346,-123.1817,-7.7338,Actual,,Calculated,291.3500,Calculated,1,11
BaySys,Amundsen,2008-03-08,22:48:41,300034012814310,70.9314,-123.2244,-12.1113,Actual,,Calculated,280.5400,Calculated,1,8
BaySys,Amundsen,2008-03-09,00:49:05,300034012814310,70.9276,-123.2538,-15.0854,Actual,,Calculated,284.2700,Calculated,1,8
BaySys,Amundsen,2008-03-09,02:49:13,300034012814310,70.9277,-123.2781,16.5988,Actual,,Calculated,278.9900,Calculated,1,12
BaySys,Amundsen,2008-03-09,04:49:06,300034012814310,70.9298,-123.3002,-5.7498,Actual,,Calculated,11.3300,Calculated,1,9
BaySys,Amundsen,2008-03-09,06:48:44,300034012814310,70.9319,-123.3162,4.0983,Actual,,Calculated,299.5900,Calculated,1,12
BaySys,Amundsen,2008-03-09,08:49:23,300034012814310,70.9335,-123.3214,-9.3670,Actual,,Calculated,6.7100,Calculated,1,11
BaySys,Amundsen,2008-03-09,10:48:51,300034012814310,70.9331,-123.3223,35.5237,Actual,,Calculated,8.1600,Calculated,1,7
BaySys,Amundsen,2008-03-09,12:48:49,300034012814310,70.9326,-123.3211,2.2812,Actual,,Calculated,190.8000,Calculated,1,8
BaySys,Amundsen,2008-03-09,14:49:35,300034012814310,70.9332,-123.3225,0.5690,Actual,,Calculated,82.7100,Calculated,1,11
BaySys,Amundsen,2008-03-09,16:49:18,300034012814310,70.9343,-123.3268,-3.4643,Actual,,Calculated,310.0200,Calculated,1,11
BaySys,Amundsen,2008-03-09,18:49:03,300034012814310,70.9353,-123.3317,-11.0993,Actual,,Calculated,163.8900,Calculated,1,12
BaySys,Amundsen,2008-03-09,20:49:35,300034012814310,70.9363,-123.3396,-8.2830,Actual,,Calculated,202.8200,Calculated,1,10
BaySys,Amundsen,2008-03-09,22:49:35,300034012814310,70.9365,-123.3412,-6.5965,Actual,,Calculated,353.9700,Calculated,1,10
BaySys,Amundsen,2008-03-10,00:49:26,300034012814310,70.9365,-123.3413,-19.0746,Actual,,Calculated,353.3500,Calculated,1,12
BaySys,Amundsen,2008-03-10,02:49:03,300034012814310,70.9365,-123.3415,29.4247,Actual,,Calculated,156.5300,Calculated,1,11
BaySys,Amundsen,2008-03-10,04:49:07,300034012814310,70.9367,-123.3445,-6.1314,Actual,,Calculated,44.4900,Calculated,1,8
BaySys,Amundsen,2008-03-10,06:49:09,300034012814310,70.9373,-123.3532,-2.4634,Actual,,Calculated,249.2600,Calculated,1,11
BaySys,Amundsen,2008-03-10,08:49:15,300034012814310,70.9372,-123.3533,-4.2808,Actual,,Calculated,22.6800,Calculated,1,11
BaySys,Amundsen,2008-03-10,10:49:09,300034012814310,70.9372,-123.3532,-8.1316,Actual,,Calculated,109.8300,Calculated,1,8
BaySys,Amundsen,2008-03-10,12:49:12,300034012814310,70.9372,-123.3532,0.1916,Actual,,Calculated,120.9300,Calculated,1,8
BaySys,Amundsen,2008-03-10,14:49:13,300034012814310,70.9372,-123.3533,5.6583,Actual,,Calculated,172.5000,Calculated,1,8
BaySys,Amundsen,2008-03-10,16:49:10,300034012814310,70.9372,-123.3532,-4.7310,Actual,,Calculated,69.6000,Calculated,1,9
BaySys,Amundsen,2008-03-10,18:49:35,300034012814310,70.9372,-123.3533,-12.1510,Actual,,Calculated,317.3800,Calculated,1,8
BaySys,Amundsen,2008-03-10,20:49:35,300034012814310,70.9372,-123.3532,-5.9282,Actual,,Calculated,337.4400,Calculated,1,5
BaySys,Amundsen,2008-03-10,22:49:19,300034012814310,70.9371,-123.3526,-6.4785,Actual,,Calculated,219.7000,Calculated,1,9
BaySys,Amundsen,2008-03-11,00:49:53,300034012814310,70.9368,-123.3512,-8.2215,Actual,,Calculated,14.1100,Calculated,1,11
BaySys,Amundsen,2008-03-11,02:49:42,300034012814310,70.9362,-123.3485,8.8102,Actual,,Calculated,129.2500,Calculated,1,6
BaySys,Amundsen,2008-03-11,04:49:26,300034012814310,70.9362,-123.3481,13.6449,Actual,,Calculated,281.9000,Calculated,1,8
BaySys,Amundsen,2008-03-11,06:50:26,300034012814310,70.9364,-123.3481,46.6219,Actual,,Calculated,200.6200,Calculated,1,12
BaySys,Amundsen,2008-03-11,08:50:22,300034012814310,70.9362,-123.3480,2.4610,Actual,,Calculated,173.4400,Calculated,1,9
BaySys,Amundsen,2008-03-11,10:51:05,300034012814310,70.9361,-123.3477,-6.8298,Actual,,Calculated,268.2700,Calculated,1,9
BaySys,Amundsen,2008-03-11,12:50:32,300034012814310,70.9353,-123.3458,-2.3295,Actual,,Calculated,51.8500,Calculated,1,11
BaySys,Amundsen,2008-03-11,14:51:05,300034012814310,70.9344,-123.3423,-2.8321,Actual,,Calculated,192.1400,Calculated,1,11
BaySys,Amundsen,2008-03-11,16:50:38,300034012814310,70.9335,-123.3400,-9.1665,Actual,,Calculated,226.7200,Calculated,1,10
BaySys,Amundsen,2008-03-11,18:51:05,300034012814310,70.9326,-123.3388,-9.8592,Actual,,Calculated,179.1600,Calculated,1,13
BaySys,Amundsen,2008-03-11,20:51:05,300034012814310,70.9314,-123.3378,-7.6254,Actual,,Calculated,273.0700,Calculated,1,8
BaySys,Amundsen,2008-03-11,22:50:41,300034012814310,70.9300,-123.3363,-5.5296,Actual,,Calculated,143.4000,Calculated,1,9
BaySys,Amundsen,2008-03-12,00:51:12,300034012814310,70.9290,-123.3329,-17.7469,Actual,,Calculated,106.3600,Calculated,1,12
BaySys,Amundsen,2008-03-12,02:50:45,300034012814310,70.9285,-123.3300,22.8678,Actual,,Calculated,162.3600,Calculated,1,8
BaySys,Amundsen,2008-03-12,04:51:29,300034012814310,70.9285,-123.3285,4.6655,Actual,,Calculated,284.2100,Calculated,1,10
BaySys,Amundsen,2008-03-12,06:51:19,300034012814310,70.9286,-123.3287,25.7074,Actual,,Calculated,293.2100,Calculated,1,12
BaySys,Amundsen,2008-03-12,08:51:24,300034012814310,70.9285,-123.3286,-4.5217,Actual,,Calculated,49.3100,Calculated,1,9
BaySys,Amundsen,2008-03-12,12:55:02,300034012814310,70.9280,-123.3185,48.1159,Actual,,Calculated,15.9500,Calculated,1,10
BaySys,Amundsen,2008-03-12,16:55:02,300034012814310,70.9253,-123.2887,-6.7952,Actual,,Calculated,146.9000,Calculated,1,10
BaySys,Amundsen,2008-03-12,18:55:07,300034012814310,70.9234,-123.2689,-12.1649,Actual,,Calculated,129.5800,Calculated,1,13
BaySys,Amundsen,2008-03-12,20:55:35,300034012814310,70.9220,-123.2414,1.4972,Actual,,Calculated,348.3000,Calculated,1,11
BaySys,Amundsen,2008-03-12,22:55:35,300034012814310,70.9200,-123.2062,-12.1570,Actual,,Calculated,109.5500,Calculated,1,8
BaySys,Amundsen,2008-03-13,00:55:35,300034012814310,70.9166,-123.1636,-13.1182,Actual,,Calculated,149.4600,Calculated,1,12
BaySys,Amundsen,2008-03-13,02:55:35,300034012814310,70.9089,-123.1236,7.5327,Actual,,Calculated,104.6500,Calculated,1,8
BaySys,Amundsen,2008-03-13,04:55:10,300034012814310,70.8982,-123.0975,16.8076,Actual,,Calculated,173.2500,Calculated,1,10
BaySys,Amundsen,2008-03-13,06:55:35,300034012814310,70.8903,-123.0834,-1.1879,Actual,,Calculated,25.2700,Calculated,1,12
BaySys,Amundsen,2008-03-13,08:56:44,300034012814310,70.8862,-123.0752,1.7743,Actual,,Calculated,194.1000,Calculated,1,9
BaySys,Amundsen,2008-03-13,10:56:35,300034012814310,70.8826,-123.0679,50.1773,Actual,,Calculated,356.0000,Calculated,1,8
BaySys,Amundsen,2008-03-13,16:57:05,300034012814310,70.8659,-123.0365,-0.0367,Actual,,Calculated,322.7600,Calculated,1,10
BaySys,Amundsen,2008-03-13,18:56:43,300034012814310,70.8608,-123.0310,-8.2119,Actual,,Calculated,157.3200,Calculated,1,6
BaySys,Amundsen,2008-03-13,20:56:39,300034012814310,70.8568,-123.0290,-7.1565,Actual,,Calculated,96.1500,Calculated,1,11
BaySys,Amundsen,2008-03-13,22:56:41,300034012814310,70.8524,-123.0283,-10.8506,Actual,,Calculated,57.2100,Calculated,1,8
BaySys,Amundsen,2008-03-14,00:56:45,300034012814310,70.8476,-123.0284,-2.7496,Actual,,Calculated,250.8400,Calculated,1,7
BaySys,Amundsen,2008-03-14,02:57:23,300034012814310,70.8466,-123.0244,-7.8023,Actual,,Calculated,9.3000,Calculated,1,11
BaySys,Amundsen,2008-03-14,04:56:50,300034012814310,70.8468,-123.0176,25.6926,Actual,,Calculated,112.7300,Calculated,1,10
BaySys,Amundsen,2008-03-14,06:56:49,300034012814310,70.8438,-123.0069,-7.0403,Actual,,Calculated,139.6100,Calculated,1,10
BaySys,Amundsen,2008-03-14,09:03:54,300034012814310,70.8367,-122.9897,-11.9933,Actual,,Calculated,191.9100,Calculated,1,8
BaySys,Amundsen,2008-03-14,11:03:55,300034012814310,70.8258,-122.9673,-8.1774,Actual,,Calculated,153.4200,Calculated,1,8
BaySys,Amundsen,2008-03-14,13:04:29,300034012814310,70.8151,-122.9450,-0.9515,Actual,,Calculated,220.4800,Calculated,1,10
BaySys,Amundsen,2008-03-14,15:04:24,300034012814310,70.8074,-122.9298,-4.5991,Actual,,Calculated,195.1300,Calculated,1,9
BaySys,Amundsen,2008-03-14,17:04:04,300034012814310,70.8026,-122.9201,-9.6453,Actual,,Calculated,36.0100,Calculated,1,7
BaySys,Amundsen,2008-03-14,19:04:18,300034012814310,70.8013,-122.9154,-9.0720,Actual,,Calculated,253.5300,Calculated,1,9
BaySys,Amundsen,2008-03-14,21:04:10,300034012814310,70.8013,-122.9155,0.0104,Actual,,Calculated,314.9500,Calculated,1,6
BaySys,Amundsen,2008-03-14,23:04:08,300034012814310,70.8013,-122.9155,-12.3286,Actual,,Calculated,134.6800,Calculated,1,8
BaySys,Amundsen,2008-03-15,01:04:35,300034012814310,70.8012,-122.9155,-15.2584,Actual,,Calculated,248.4400,Calculated,1,9
BaySys,Amundsen,2008-03-15,03:04:14,300034012814310,70.8013,-122.9157,11.8596,Actual,,Calculated,180.3100,Calculated,1,8
BaySys,Amundsen,2008-03-15,05:04:36,300034012814310,70.8014,-122.9157,4.4771,Actual,,Calculated,133.7700,Calculated,1,10
BaySys,Amundsen,2008-03-15,07:04:19,300034012814310,70.8013,-122.9155,-7.4574,Actual,,Calculated,25.2300,Calculated,1,9
BaySys,Amundsen,2008-03-15,09:04:35,300034012814310,70.8013,-122.9155,10.4411,Actual,,Calculated,13.7100,Calculated,1,10
BaySys,Amundsen,2008-03-15,11:04:29,300034012814310,70.8013,-122.9155,-14.9054,Actual,,Calculated,309.9900,Calculated,1,8
BaySys,Amundsen,2008-03-15,13:05:00,300034012814310,70.8014,-122.9155,-0.8462,Actual,,Calculated,115.9400,Calculated,1,10
BaySys,Amundsen,2008-03-15,15:04:27,300034012814310,70.8013,-122.9155,1.9642,Actual,,Calculated,224.8500,Calculated,1,9
BaySys,Amundsen,2008-03-15,17:04:24,300034012814310,70.8013,-122.9154,-11.0839,Actual,,Calculated,170.1700,Calculated,1,8
BaySys,Amundsen,2008-03-15,19:04:49,300034012814310,70.8011,-122.9154,-80.4396,Actual,,Calculated,165.2600,Calculated,1,10
BaySys,Amundsen,2008-03-15,21:04:31,300034012814310,70.8013,-122.9154,1.8688,Actual,,Calculated,338.3300,Calculated,1,7
BaySys,Amundsen,2008-03-15,23:04:32,300034012814310,70.8013,-122.9155,-13.0991,Actual,,Calculated,146.1000,Calculated,1,10
BaySys,Amundsen,2008-03-16,01:04:32,300034012814310,70.8013,-122.9155,10.0363,Actual,,Calculated,351.5800,Calculated,1,11
BaySys,Amundsen,2008-03-16,03:05:29,300034012814310,70.8013,-122.9154,5.6607,Actual,,Calculated,136.5800,Calculated,1,9
BaySys,Amundsen,2008-03-16,05:05:05,300034012814310,70.8012,-122.9155,-13.1681,Actual,,Calculated,222.4400,Calculated,1,13
BaySys,Amundsen,2008-03-16,07:04:55,300034012814310,70.8013,-122.9155,1.3462,Actual,,Calculated,9.7100,Calculated,1,8
BaySys,Amundsen,2008-03-16,09:04:44,300034012814310,70.8013,-122.9155,0.5605,Actual,,Calculated,99.3900,Calculated,1,10
BaySys,Amundsen,2008-03-16,11:05:23,300034012814310,70.8013,-122.9155,-9.0873,Actual,,Calculated,189.6600,Calculated,1,11
BaySys,Amundsen,2008-03-16,13:04:45,300034012814310,70.8013,-122.9157,13.0997,Actual,,Calculated,249.1900,Calculated,1,9
BaySys,Amundsen,2008-03-16,15:04:47,300034012814310,70.8013,-122.9156,3.7005,Actual,,Calculated,224.2700,Calculated,1,8
BaySys,Amundsen,2008-03-16,17:04:49,300034012814310,70.8013,-122.9157,-16.6192,Actual,,Calculated,289.7400,Calculated,1,10
BaySys,Amundsen,2008-03-16,19:05:01,300034012814310,70.8013,-122.9156,1.8472,Actual,,Calculated,196.7300,Calculated,1,6